Вернуться в каталог

COSMOS 1275 DEB

АктивенPO
NORAD 12672·DEBRIS·🇷🇺 Russia

Запущен Jun 4, 1981 с Plesetsk Cosmodrome

Loading…

Ближайшие Пролёты (ближайшие 24 часа)

TLE

СвежийSource: Space-Track

Эпоха: Sep 14, 2026, 13:13 UTC

1 12672U 81053AC  26257.55087304  .00000306  00000-0  25994-3 0  9990
2 12672  82.9395 103.0076 0027050   9.3911  19.2337 13.84148684270775

Отслеживайте COSMOS 1275 DEB в реальном времени с AllMySat

Download on the App Store